Year,Month,Day,Hour,Minute,Value (Times are PST for insolation in W/m^2)
2019,01,19,00,00,0.00
2019,01,19,00,01,0.00
2019,01,19,00,02,0.00
2019,01,19,00,03,0.00
2019,01,19,00,04,0.00
2019,01,19,00,05,0.00
2019,01,19,00,06,0.00
2019,01,19,00,07,0.00
2019,01,19,00,08,0.00
2019,01,19,00,09,0.00
2019,01,19,00,10,0.00
2019,01,19,00,11,0.00
2019,01,19,00,12,0.00
2019,01,19,00,13,0.00
2019,01,19,00,14,0.00
2019,01,19,00,15,0.00
2019,01,19,00,16,0.00
2019,01,19,00,17,0.00
2019,01,19,00,18,0.00
2019,01,19,00,19,0.00
2019,01,19,00,20,0.00
2019,01,19,00,21,0.00
2019,01,19,00,22,0.00
2019,01,19,00,23,0.00
2019,01,19,00,24,0.00
2019,01,19,00,25,0.00
2019,01,19,00,26,0.00
2019,01,19,00,27,0.00
2019,01,19,00,28,0.00
2019,01,19,00,29,0.00
2019,01,19,00,30,0.00
2019,01,19,00,31,0.00
2019,01,19,00,32,0.00
2019,01,19,00,33,0.00
2019,01,19,00,34,0.00
2019,01,19,00,35,0.00
2019,01,19,00,36,0.00
2019,01,19,00,37,0.00
2019,01,19,00,38,0.00
2019,01,19,00,39,0.00
2019,01,19,00,40,0.00
2019,01,19,00,41,0.00
2019,01,19,00,42,0.00
2019,01,19,00,43,0.00
2019,01,19,00,44,0.00
2019,01,19,00,45,0.00
2019,01,19,00,46,0.00
2019,01,19,00,47,0.00
2019,01,19,00,48,0.00
2019,01,19,00,49,0.00
2019,01,19,00,50,0.00
2019,01,19,00,51,0.00
2019,01,19,00,52,0.00
2019,01,19,00,53,0.00
2019,01,19,00,54,0.00
2019,01,19,00,55,0.00
2019,01,19,00,56,0.00
2019,01,19,00,57,0.00
2019,01,19,00,58,0.00
2019,01,19,00,59,0.00
2019,01,19,01,00,0.00
2019,01,19,01,01,0.00
2019,01,19,01,02,0.00
2019,01,19,01,03,0.00
2019,01,19,01,04,0.00
2019,01,19,01,05,0.00
2019,01,19,01,06,0.00
2019,01,19,01,07,0.00
2019,01,19,01,08,0.00
2019,01,19,01,09,0.00
2019,01,19,01,10,0.00
2019,01,19,01,11,0.00
2019,01,19,01,12,0.00
2019,01,19,01,13,0.00
2019,01,19,01,14,0.00
2019,01,19,01,15,0.00
2019,01,19,01,16,0.00
2019,01,19,01,17,0.00
2019,01,19,01,18,0.00
2019,01,19,01,19,0.00
2019,01,19,01,20,0.00
2019,01,19,01,21,0.00
2019,01,19,01,22,0.00
2019,01,19,01,23,0.00
2019,01,19,01,24,0.00
2019,01,19,01,25,0.00
2019,01,19,01,26,0.00
2019,01,19,01,27,0.00
2019,01,19,01,28,0.00
2019,01,19,01,29,0.00
2019,01,19,01,30,0.00
2019,01,19,01,31,0.00
2019,01,19,01,32,0.00
2019,01,19,01,33,0.00
2019,01,19,01,34,0.00
2019,01,19,01,35,0.00
2019,01,19,01,36,0.00
2019,01,19,01,37,0.00
2019,01,19,01,38,0.00
2019,01,19,01,39,0.00
2019,01,19,01,40,0.00
2019,01,19,01,41,0.00
2019,01,19,01,42,0.00
2019,01,19,01,43,0.00
2019,01,19,01,44,0.00
2019,01,19,01,45,0.00
2019,01,19,01,46,0.00
2019,01,19,01,47,0.00
2019,01,19,01,48,0.00
2019,01,19,01,49,0.00
2019,01,19,01,50,0.00
2019,01,19,01,51,0.00
2019,01,19,01,52,0.00
2019,01,19,01,53,0.00
2019,01,19,01,54,0.00
2019,01,19,01,55,0.00
2019,01,19,01,56,0.00
2019,01,19,01,57,0.00
2019,01,19,01,58,0.00
2019,01,19,01,59,0.00
2019,01,19,02,00,0.00
2019,01,19,02,01,0.00
2019,01,19,02,02,0.00
2019,01,19,02,03,0.00
2019,01,19,02,04,0.00
2019,01,19,02,05,0.00
2019,01,19,02,06,0.00
2019,01,19,02,07,0.00
2019,01,19,02,08,0.00
2019,01,19,02,09,0.00
2019,01,19,02,10,0.00
2019,01,19,02,11,0.00
2019,01,19,02,12,0.00
2019,01,19,02,13,0.00
2019,01,19,02,14,0.00
2019,01,19,02,15,0.00
2019,01,19,02,16,0.00
2019,01,19,02,17,0.00
2019,01,19,02,18,0.00
2019,01,19,02,19,0.00
2019,01,19,02,20,0.00
2019,01,19,02,21,0.00
2019,01,19,02,22,0.00
2019,01,19,02,23,0.00
2019,01,19,02,24,0.00
2019,01,19,02,25,0.00
2019,01,19,02,26,0.00
2019,01,19,02,27,0.00
2019,01,19,02,28,0.00
2019,01,19,02,29,0.00
2019,01,19,02,30,0.00
2019,01,19,02,31,0.00
2019,01,19,02,32,0.00
2019,01,19,02,33,0.00
2019,01,19,02,34,0.00
2019,01,19,02,35,0.00
2019,01,19,02,36,0.00
2019,01,19,02,37,0.00
2019,01,19,02,38,0.00
2019,01,19,02,39,0.00
2019,01,19,02,40,0.00
2019,01,19,02,41,0.00
2019,01,19,02,42,0.00
2019,01,19,02,43,0.00
2019,01,19,02,44,0.00
2019,01,19,02,45,0.00
2019,01,19,02,46,0.00
2019,01,19,02,47,0.00
2019,01,19,02,48,0.00
2019,01,19,02,49,0.00
2019,01,19,02,50,0.00
2019,01,19,02,51,0.00
2019,01,19,02,52,0.00
2019,01,19,02,53,0.00
2019,01,19,02,54,0.00
2019,01,19,02,55,0.00
2019,01,19,02,56,0.00
2019,01,19,02,57,0.00
2019,01,19,02,58,0.00
2019,01,19,02,59,0.00
2019,01,19,03,00,0.00
2019,01,19,03,01,0.00
2019,01,19,03,02,0.00
2019,01,19,03,03,0.00
2019,01,19,03,04,0.00
2019,01,19,03,05,0.00
2019,01,19,03,06,0.00
2019,01,19,03,07,0.00
2019,01,19,03,08,0.00
2019,01,19,03,09,0.00
2019,01,19,03,10,0.00
2019,01,19,03,11,0.00
2019,01,19,03,12,0.00
2019,01,19,03,13,0.00
2019,01,19,03,14,0.00
2019,01,19,03,15,0.00
2019,01,19,03,16,0.00
2019,01,19,03,17,0.00
2019,01,19,03,18,0.00
2019,01,19,03,19,0.00
2019,01,19,03,20,0.00
2019,01,19,03,21,0.00
2019,01,19,03,22,0.00
2019,01,19,03,23,0.00
2019,01,19,03,24,0.00
2019,01,19,03,25,0.00
2019,01,19,03,26,0.00
2019,01,19,03,27,0.00
2019,01,19,03,28,0.00
2019,01,19,03,29,0.00
2019,01,19,03,30,0.00
2019,01,19,03,31,0.00
2019,01,19,03,32,0.00
2019,01,19,03,33,0.00
2019,01,19,03,34,0.00
2019,01,19,03,35,0.00
2019,01,19,03,36,0.00
2019,01,19,03,37,0.00
2019,01,19,03,38,0.00
2019,01,19,03,39,0.00
2019,01,19,03,40,0.00
2019,01,19,03,41,0.00
2019,01,19,03,42,0.00
2019,01,19,03,43,0.00
2019,01,19,03,44,0.00
2019,01,19,03,45,0.00
2019,01,19,03,46,0.00
2019,01,19,03,47,0.00
2019,01,19,03,48,0.00
2019,01,19,03,49,0.00
2019,01,19,03,50,0.00
2019,01,19,03,51,0.00
2019,01,19,03,52,0.00
2019,01,19,03,53,0.00
2019,01,19,03,54,0.00
2019,01,19,03,55,0.00
2019,01,19,03,56,0.00
2019,01,19,03,57,0.00
2019,01,19,03,58,0.00
2019,01,19,03,59,0.00
2019,01,19,04,00,0.00
2019,01,19,04,01,0.00
2019,01,19,04,02,0.00
2019,01,19,04,03,0.00
2019,01,19,04,04,0.00
2019,01,19,04,05,0.00
2019,01,19,04,06,0.00
2019,01,19,04,07,0.00
2019,01,19,04,08,0.00
2019,01,19,04,09,0.00
2019,01,19,04,10,0.00
2019,01,19,04,11,0.00
2019,01,19,04,12,0.00
2019,01,19,04,13,0.00
2019,01,19,04,14,0.00
2019,01,19,04,15,0.00
2019,01,19,04,16,0.00
2019,01,19,04,17,0.00
2019,01,19,04,18,0.00
2019,01,19,04,19,0.00
2019,01,19,04,20,0.00
2019,01,19,04,21,0.00
2019,01,19,04,22,0.00
2019,01,19,04,23,0.00
2019,01,19,04,24,0.00
2019,01,19,04,25,0.00
2019,01,19,04,26,0.00
2019,01,19,04,27,0.00
2019,01,19,04,28,0.00
2019,01,19,04,29,0.00
2019,01,19,04,30,0.00
2019,01,19,04,31,0.00
2019,01,19,04,32,0.00
2019,01,19,04,33,0.00
2019,01,19,04,34,0.00
2019,01,19,04,35,0.00
2019,01,19,04,36,0.00
2019,01,19,04,37,0.00
2019,01,19,04,38,0.00
2019,01,19,04,39,0.00
2019,01,19,04,40,0.00
2019,01,19,04,41,0.00
2019,01,19,04,42,0.00
2019,01,19,04,43,0.00
2019,01,19,04,44,0.00
2019,01,19,04,45,0.00
2019,01,19,04,46,0.00
2019,01,19,04,47,0.00
2019,01,19,04,48,0.00
2019,01,19,04,49,0.00
2019,01,19,04,50,0.00
2019,01,19,04,51,0.00
2019,01,19,04,52,0.00
2019,01,19,04,53,0.00
2019,01,19,04,54,0.00
2019,01,19,04,55,0.00
2019,01,19,04,56,0.00
2019,01,19,04,57,0.00
2019,01,19,04,58,0.00
2019,01,19,04,59,0.00
2019,01,19,05,00,0.00
2019,01,19,05,01,0.00
2019,01,19,05,02,0.00
2019,01,19,05,03,0.00
2019,01,19,05,04,0.00
2019,01,19,05,05,0.00
2019,01,19,05,06,0.00
2019,01,19,05,07,0.00
2019,01,19,05,08,0.00
2019,01,19,05,09,0.00
2019,01,19,05,10,0.00
2019,01,19,05,11,0.00
2019,01,19,05,12,0.00
2019,01,19,05,13,0.00
2019,01,19,05,14,0.00
2019,01,19,05,15,0.00
2019,01,19,05,16,0.00
2019,01,19,05,17,0.00
2019,01,19,05,18,0.00
2019,01,19,05,19,0.00
2019,01,19,05,20,0.00
2019,01,19,05,21,0.00
2019,01,19,05,22,0.00
2019,01,19,05,23,0.00
2019,01,19,05,24,0.00
2019,01,19,05,25,0.00
2019,01,19,05,26,0.00
2019,01,19,05,27,0.00
2019,01,19,05,28,0.00
2019,01,19,05,29,0.00
2019,01,19,05,30,0.00
2019,01,19,05,31,0.00
2019,01,19,05,32,0.00
2019,01,19,05,33,0.00
2019,01,19,05,34,0.00
2019,01,19,05,35,0.00
2019,01,19,05,36,0.00
2019,01,19,05,37,0.00
2019,01,19,05,38,0.00
2019,01,19,05,39,0.00
2019,01,19,05,40,0.00
2019,01,19,05,41,0.00
2019,01,19,05,42,0.00
2019,01,19,05,43,0.00
2019,01,19,05,44,0.00
2019,01,19,05,45,0.00
2019,01,19,05,46,0.00
2019,01,19,05,47,0.00
2019,01,19,05,48,0.00
2019,01,19,05,49,0.00
2019,01,19,05,50,0.00
2019,01,19,05,51,0.00
2019,01,19,05,52,0.00
2019,01,19,05,53,0.00
2019,01,19,05,54,0.00
2019,01,19,05,55,0.00
2019,01,19,05,56,0.00
2019,01,19,05,57,0.00
2019,01,19,05,58,0.00
2019,01,19,05,59,0.00
2019,01,19,06,00,0.00
2019,01,19,06,01,0.00
2019,01,19,06,02,0.00
2019,01,19,06,03,0.00
2019,01,19,06,04,0.00
2019,01,19,06,05,0.00
2019,01,19,06,06,0.00
2019,01,19,06,07,0.00
2019,01,19,06,08,0.00
2019,01,19,06,09,0.00
2019,01,19,06,10,0.00
2019,01,19,06,11,0.00
2019,01,19,06,12,0.00
2019,01,19,06,13,0.00
2019,01,19,06,14,0.00
2019,01,19,06,15,0.00
2019,01,19,06,16,0.00
2019,01,19,06,17,0.00
2019,01,19,06,18,0.00
2019,01,19,06,19,0.00
2019,01,19,06,20,0.00
2019,01,19,06,21,0.00
2019,01,19,06,22,0.00
2019,01,19,06,23,0.00
2019,01,19,06,24,0.00
2019,01,19,06,25,0.00
2019,01,19,06,26,0.00
2019,01,19,06,27,0.00
2019,01,19,06,28,0.00
2019,01,19,06,29,0.00
2019,01,19,06,30,0.00
2019,01,19,06,31,0.00
2019,01,19,06,32,0.00
2019,01,19,06,33,0.00
2019,01,19,06,34,0.00
2019,01,19,06,35,0.00
2019,01,19,06,36,0.00
2019,01,19,06,37,0.00
2019,01,19,06,38,0.00
2019,01,19,06,39,0.00
2019,01,19,06,40,0.00
2019,01,19,06,41,0.00
2019,01,19,06,42,0.00
2019,01,19,06,43,0.00
2019,01,19,06,44,0.00
2019,01,19,06,45,0.00
2019,01,19,06,46,0.00
2019,01,19,06,47,0.00
2019,01,19,06,48,0.00
2019,01,19,06,49,0.00
2019,01,19,06,50,0.00
2019,01,19,06,51,0.00
2019,01,19,06,52,0.00
2019,01,19,06,53,0.00
2019,01,19,06,54,0.00
2019,01,19,06,55,0.00
2019,01,19,06,56,0.00
2019,01,19,06,57,0.00
2019,01,19,06,58,0.00
2019,01,19,06,59,0.00
2019,01,19,07,00,0.00
2019,01,19,07,01,0.00
2019,01,19,07,02,0.00
2019,01,19,07,03,0.00
2019,01,19,07,04,0.00
2019,01,19,07,05,0.00
2019,01,19,07,06,0.00
2019,01,19,07,07,0.00
2019,01,19,07,08,0.00
2019,01,19,07,09,0.00
2019,01,19,07,10,0.00
2019,01,19,07,11,0.00
2019,01,19,07,12,0.00
2019,01,19,07,13,0.00
2019,01,19,07,14,0.00
2019,01,19,07,15,0.00
2019,01,19,07,16,0.00
2019,01,19,07,17,0.00
2019,01,19,07,18,0.00
2019,01,19,07,19,0.00
2019,01,19,07,20,0.00
2019,01,19,07,21,0.00
2019,01,19,07,22,0.00
2019,01,19,07,23,0.00
2019,01,19,07,24,0.00
2019,01,19,07,25,0.00
2019,01,19,07,26,0.00
2019,01,19,07,27,0.00
2019,01,19,07,28,0.00
2019,01,19,07,29,0.00
2019,01,19,07,30,0.00
2019,01,19,07,31,0.00
2019,01,19,07,32,0.00
2019,01,19,07,33,0.00
2019,01,19,07,34,0.00
2019,01,19,07,35,0.00
2019,01,19,07,36,0.00
2019,01,19,07,37,0.00
2019,01,19,07,38,0.00
2019,01,19,07,39,0.00
2019,01,19,07,40,0.00
2019,01,19,07,41,0.00
2019,01,19,07,42,0.00
2019,01,19,07,43,0.00
2019,01,19,07,44,0.00
2019,01,19,07,45,0.00
2019,01,19,07,46,0.00
2019,01,19,07,47,0.00
2019,01,19,07,48,0.00
2019,01,19,07,49,0.00
2019,01,19,07,50,0.00
2019,01,19,07,51,0.00
2019,01,19,07,52,0.00
2019,01,19,07,53,0.00
2019,01,19,07,54,0.00
2019,01,19,07,55,0.00
2019,01,19,07,56,0.00
2019,01,19,07,57,0.00
2019,01,19,07,58,0.00
2019,01,19,07,59,0.00
2019,01,19,08,00,0.00
2019,01,19,08,01,0.00
2019,01,19,08,02,0.00
2019,01,19,08,03,0.00
2019,01,19,08,04,0.00
2019,01,19,08,05,0.00
2019,01,19,08,06,0.00
2019,01,19,08,07,0.00
2019,01,19,08,08,0.00
2019,01,19,08,09,0.00
2019,01,19,08,10,0.00
2019,01,19,08,11,0.00
2019,01,19,08,12,0.00
2019,01,19,08,13,0.00
2019,01,19,08,14,0.00
2019,01,19,08,15,0.00
2019,01,19,08,16,0.00
2019,01,19,08,17,0.00
2019,01,19,08,18,0.00
2019,01,19,08,19,0.00
2019,01,19,08,20,0.00
2019,01,19,08,21,0.00
2019,01,19,08,22,0.00
2019,01,19,08,23,0.00
2019,01,19,08,24,0.00
2019,01,19,08,25,0.00
2019,01,19,08,26,0.00
2019,01,19,08,27,0.00
2019,01,19,08,28,0.00
2019,01,19,08,29,0.00
2019,01,19,08,30,2.10
2019,01,19,08,31,6.00
2019,01,19,08,32,9.20
2019,01,19,08,33,11.60
2019,01,19,08,34,13.30
2019,01,19,08,35,15.50
2019,01,19,08,36,16.00
2019,01,19,08,37,17.70
2019,01,19,08,38,20.70
2019,01,19,08,39,23.10
2019,01,19,08,40,26.70
2019,01,19,08,41,34.10
2019,01,19,08,42,39.20
2019,01,19,08,43,39.10
2019,01,19,08,44,35.50
2019,01,19,08,45,33.90
2019,01,19,08,46,36.00
2019,01,19,08,47,38.10
2019,01,19,08,48,39.00
2019,01,19,08,49,33.00
2019,01,19,08,50,26.40
2019,01,19,08,51,16.10
2019,01,19,08,52,8.00
2019,01,19,08,53,5.20
2019,01,19,08,54,5.10
2019,01,19,08,55,7.00
2019,01,19,08,56,7.70
2019,01,19,08,57,11.70
2019,01,19,08,58,15.40
2019,01,19,08,59,22.30
2019,01,19,09,00,31.00
2019,01,19,09,01,37.40
2019,01,19,09,02,43.30
2019,01,19,09,03,49.10
2019,01,19,09,04,58.30
2019,01,19,09,05,70.70
2019,01,19,09,06,79.70
2019,01,19,09,07,81.00
2019,01,19,09,08,81.00
2019,01,19,09,09,57.50
2019,01,19,09,10,46.90
2019,01,19,09,11,45.60
2019,01,19,09,12,44.70
2019,01,19,09,13,47.60
2019,01,19,09,14,50.80
2019,01,19,09,15,50.60
2019,01,19,09,16,44.10
2019,01,19,09,17,44.70
2019,01,19,09,18,56.30
2019,01,19,09,19,71.30
2019,01,19,09,20,81.80
2019,01,19,09,21,97.00
2019,01,19,09,22,112.00
2019,01,19,09,23,114.00
2019,01,19,09,24,111.10
2019,01,19,09,25,113.10
2019,01,19,09,26,116.40
2019,01,19,09,27,128.20
2019,01,19,09,28,132.60
2019,01,19,09,29,138.40
2019,01,19,09,30,151.10
2019,01,19,09,31,160.40
2019,01,19,09,32,160.40
2019,01,19,09,33,158.00
2019,01,19,09,34,159.30
2019,01,19,09,35,170.20
2019,01,19,09,36,182.90
2019,01,19,09,37,185.00
2019,01,19,09,38,194.10
2019,01,19,09,39,187.00
2019,01,19,09,40,127.00
2019,01,19,09,41,129.50
2019,01,19,09,42,144.30
2019,01,19,09,43,151.90
2019,01,19,09,44,134.50
2019,01,19,09,45,118.00
2019,01,19,09,46,101.80
2019,01,19,09,47,80.20
2019,01,19,09,48,75.10
2019,01,19,09,49,77.30
2019,01,19,09,50,81.90
2019,01,19,09,51,78.10
2019,01,19,09,52,68.40
2019,01,19,09,53,60.60
2019,01,19,09,54,54.00
2019,01,19,09,55,52.60
2019,01,19,09,56,48.30
2019,01,19,09,57,44.50
2019,01,19,09,58,46.00
2019,01,19,09,59,44.50
2019,01,19,10,00,44.10
2019,01,19,10,01,56.50
2019,01,19,10,02,74.60
2019,01,19,10,03,82.90
2019,01,19,10,04,83.30
2019,01,19,10,05,81.50
2019,01,19,10,06,75.30
2019,01,19,10,07,68.00
2019,01,19,10,08,62.50
2019,01,19,10,09,59.90
2019,01,19,10,10,57.80
2019,01,19,10,11,56.00
2019,01,19,10,12,56.00
2019,01,19,10,13,57.10
2019,01,19,10,14,60.00
2019,01,19,10,15,60.00
2019,01,19,10,16,59.00
2019,01,19,10,17,58.00
2019,01,19,10,18,58.00
2019,01,19,10,19,58.00
2019,01,19,10,20,60.90
2019,01,19,10,21,66.00
2019,01,19,10,22,69.60
2019,01,19,10,23,69.10
2019,01,19,10,24,61.60
2019,01,19,10,25,53.90
2019,01,19,10,26,54.30
2019,01,19,10,27,63.30
2019,01,19,10,28,76.90
2019,01,19,10,29,86.20
2019,01,19,10,30,90.00
2019,01,19,10,31,86.70
2019,01,19,10,32,75.40
2019,01,19,10,33,63.40
2019,01,19,10,34,62.00
2019,01,19,10,35,69.50
2019,01,19,10,36,80.90
2019,01,19,10,37,87.30
2019,01,19,10,38,86.20
2019,01,19,10,39,71.20
2019,01,19,10,40,55.30
2019,01,19,10,41,49.00
2019,01,19,10,42,50.00
2019,01,19,10,43,53.00
2019,01,19,10,44,51.50
2019,01,19,10,45,49.00
2019,01,19,10,46,46.60
2019,01,19,10,47,41.80
2019,01,19,10,48,42.50
2019,01,19,10,49,50.00
2019,01,19,10,50,58.10
2019,01,19,10,51,65.70
2019,01,19,10,52,77.30
2019,01,19,10,53,99.90
2019,01,19,10,54,129.00
2019,01,19,10,55,106.80
2019,01,19,10,56,83.80
2019,01,19,10,57,72.30
2019,01,19,10,58,66.40
2019,01,19,10,59,64.30
2019,01,19,11,00,59.10
2019,01,19,11,01,51.60
2019,01,19,11,02,51.70
2019,01,19,11,03,60.80
2019,01,19,11,04,79.00
2019,01,19,11,05,111.50
2019,01,19,11,06,105.60
2019,01,19,11,07,115.70
2019,01,19,11,08,151.60
2019,01,19,11,09,150.60
2019,01,19,11,10,142.00
2019,01,19,11,11,181.60
2019,01,19,11,12,361.00
2019,01,19,11,13,365.40
2019,01,19,11,14,373.00
2019,01,19,11,15,393.30
2019,01,19,11,16,425.30
2019,01,19,11,17,441.00
2019,01,19,11,18,445.30
2019,01,19,11,19,463.30
2019,01,19,11,20,484.80
2019,01,19,11,21,501.30
2019,01,19,11,22,507.40
2019,01,19,11,23,478.90
2019,01,19,11,24,531.00
2019,01,19,11,25,527.80
2019,01,19,11,26,504.10
2019,01,19,11,27,536.00
2019,01,19,11,28,465.70
2019,01,19,11,29,301.60
2019,01,19,11,30,322.00
2019,01,19,11,31,409.60
2019,01,19,11,32,485.80
2019,01,19,11,33,473.30
2019,01,19,11,34,469.30
2019,01,19,11,35,451.50
2019,01,19,11,36,452.50
2019,01,19,11,37,440.30
2019,01,19,11,38,348.00
2019,01,19,11,39,387.00
2019,01,19,11,40,370.00
2019,01,19,11,41,209.00
2019,01,19,11,42,209.00
2019,01,19,11,43,175.00
2019,01,19,11,44,111.10
2019,01,19,11,45,107.70
2019,01,19,11,46,53.50
2019,01,19,11,47,53.50
2019,01,19,11,48,57.70
2019,01,19,11,49,64.70
2019,01,19,11,50,75.70
2019,01,19,11,51,90.30
2019,01,19,11,52,93.00
2019,01,19,11,53,93.00
2019,01,19,11,54,430.00
2019,01,19,11,55,446.00
2019,01,19,11,56,453.50
2019,01,19,11,57,487.70
2019,01,19,11,58,490.00
2019,01,19,11,59,432.50
2019,01,19,12,00,291.30
2019,01,19,12,01,232.20
2019,01,19,12,02,227.00
2019,01,19,12,03,193.00
2019,01,19,12,04,158.00
2019,01,19,12,05,138.60
2019,01,19,12,06,123.50
2019,01,19,12,07,114.10
2019,01,19,12,08,104.80
2019,01,19,12,09,96.70
2019,01,19,12,10,89.40
2019,01,19,12,11,84.40
2019,01,19,12,12,86.50
2019,01,19,12,13,90.90
2019,01,19,12,14,107.80
2019,01,19,12,15,146.00
2019,01,19,12,16,191.60
2019,01,19,12,17,221.40
2019,01,19,12,18,261.60
2019,01,19,12,19,282.30
2019,01,19,12,20,267.70
2019,01,19,12,21,247.40
2019,01,19,12,22,233.70
2019,01,19,12,23,219.30
2019,01,19,12,24,201.00
2019,01,19,12,25,179.30
2019,01,19,12,26,159.90
2019,01,19,12,27,150.50
2019,01,19,12,28,152.10
2019,01,19,12,29,117.80
2019,01,19,12,30,114.00
2019,01,19,12,31,117.30
2019,01,19,12,32,118.30
2019,01,19,12,33,116.00
2019,01,19,12,34,128.00
2019,01,19,12,35,160.90
2019,01,19,12,36,184.80
2019,01,19,12,37,209.40
2019,01,19,12,38,213.00
2019,01,19,12,39,445.80
2019,01,19,12,40,457.70
2019,01,19,12,41,417.00
2019,01,19,12,42,417.00
2019,01,19,12,43,417.00
2019,01,19,12,44,488.30
2019,01,19,12,45,613.00
2019,01,19,12,46,435.90
2019,01,19,12,47,242.10
2019,01,19,12,48,243.00
2019,01,19,12,49,405.70
2019,01,19,12,50,444.80
2019,01,19,12,51,410.40
2019,01,19,12,52,404.30
2019,01,19,12,53,414.00
2019,01,19,12,54,419.50
2019,01,19,12,55,409.10
2019,01,19,12,56,400.00
2019,01,19,12,57,392.40
2019,01,19,12,58,377.90
2019,01,19,12,59,330.30
2019,01,19,13,00,319.10
2019,01,19,13,01,363.00
2019,01,19,13,02,331.30
2019,01,19,13,03,304.00
2019,01,19,13,04,137.30
2019,01,19,13,05,54.00
2019,01,19,13,06,297.70
2019,01,19,13,07,356.70
2019,01,19,13,08,361.50
2019,01,19,13,09,357.40
2019,01,19,13,10,360.70
2019,01,19,13,11,366.50
2019,01,19,13,12,363.50
2019,01,19,13,13,362.00
2019,01,19,13,14,363.80
2019,01,19,13,15,358.90
2019,01,19,13,16,348.00
2019,01,19,13,17,348.00
2019,01,19,13,18,361.00
2019,01,19,13,19,377.00
2019,01,19,13,20,377.40
2019,01,19,13,21,376.00
2019,01,19,13,22,367.40
2019,01,19,13,23,359.60
2019,01,19,13,24,360.00
2019,01,19,13,25,359.90
2019,01,19,13,26,357.90
2019,01,19,13,27,351.80
2019,01,19,13,28,347.10
2019,01,19,13,29,346.80
2019,01,19,13,30,349.10
2019,01,19,13,31,347.00
2019,01,19,13,32,342.20
2019,01,19,13,33,339.00
2019,01,19,13,34,339.00
2019,01,19,13,35,355.70
2019,01,19,13,36,356.30
2019,01,19,13,37,352.40
2019,01,19,13,38,343.80
2019,01,19,13,39,274.00
2019,01,19,13,40,271.50
2019,01,19,13,41,252.40
2019,01,19,13,42,291.00
2019,01,19,13,43,352.00
2019,01,19,13,44,265.10
2019,01,19,13,45,119.00
2019,01,19,13,46,132.70
2019,01,19,13,47,148.30
2019,01,19,13,48,194.40
2019,01,19,13,49,218.00
2019,01,19,13,50,354.70
2019,01,19,13,51,385.80
2019,01,19,13,52,381.00
2019,01,19,13,53,502.80
2019,01,19,13,54,518.90
2019,01,19,13,55,497.00
2019,01,19,13,56,482.60
2019,01,19,13,57,414.70
2019,01,19,13,58,398.00
2019,01,19,13,59,379.40
2019,01,19,14,00,376.00
2019,01,19,14,01,381.40
2019,01,19,14,02,385.70
2019,01,19,14,03,388.00
2019,01,19,14,04,384.70
2019,01,19,14,05,372.80
2019,01,19,14,06,352.00
2019,01,19,14,07,332.60
2019,01,19,14,08,329.10
2019,01,19,14,09,329.00
2019,01,19,14,10,329.10
2019,01,19,14,11,330.40
2019,01,19,14,12,331.50
2019,01,19,14,13,329.70
2019,01,19,14,14,329.00
2019,01,19,14,15,326.00
2019,01,19,14,16,327.70
2019,01,19,14,17,329.10
2019,01,19,14,18,280.40
2019,01,19,14,19,319.70
2019,01,19,14,20,371.20
2019,01,19,14,21,378.00
2019,01,19,14,22,378.00
2019,01,19,14,23,400.70
2019,01,19,14,24,394.30
2019,01,19,14,25,220.00
2019,01,19,14,26,255.80
2019,01,19,14,27,410.10
2019,01,19,14,28,380.00
2019,01,19,14,29,360.00
2019,01,19,14,30,262.30
2019,01,19,14,31,125.30
2019,01,19,14,32,117.00
2019,01,19,14,33,121.30
2019,01,19,14,34,131.70
2019,01,19,14,35,140.10
2019,01,19,14,36,147.70
2019,01,19,14,37,191.90
2019,01,19,14,38,199.00
2019,01,19,14,39,387.80
2019,01,19,14,40,405.00
2019,01,19,14,41,414.30
2019,01,19,14,42,407.40
2019,01,19,14,43,396.00
2019,01,19,14,44,392.70
2019,01,19,14,45,353.60
2019,01,19,14,46,294.70
2019,01,19,14,47,279.00
2019,01,19,14,48,165.10
2019,01,19,14,49,82.30
2019,01,19,14,50,73.10
2019,01,19,14,51,73.60
2019,01,19,14,52,75.70
2019,01,19,14,53,76.90
2019,01,19,14,54,81.20
2019,01,19,14,55,86.70
2019,01,19,14,56,94.30
2019,01,19,14,57,101.70
2019,01,19,14,58,107.60
2019,01,19,14,59,112.30
2019,01,19,15,00,121.00
2019,01,19,15,01,129.30
2019,01,19,15,02,141.60
2019,01,19,15,03,198.10
2019,01,19,15,04,233.70
2019,01,19,15,05,253.50
2019,01,19,15,06,308.60
2019,01,19,15,07,318.30
2019,01,19,15,08,358.00
2019,01,19,15,09,383.60
2019,01,19,15,10,396.10
2019,01,19,15,11,391.40
2019,01,19,15,12,357.40
2019,01,19,15,13,320.60
2019,01,19,15,14,291.20
2019,01,19,15,15,275.00
2019,01,19,15,16,262.70
2019,01,19,15,17,257.50
2019,01,19,15,18,254.60
2019,01,19,15,19,249.70
2019,01,19,15,20,246.50
2019,01,19,15,21,243.60
2019,01,19,15,22,237.90
2019,01,19,15,23,230.70
2019,01,19,15,24,207.40
2019,01,19,15,25,190.70
2019,01,19,15,26,176.90
2019,01,19,15,27,175.30
2019,01,19,15,28,187.70
2019,01,19,15,29,190.50
2019,01,19,15,30,181.10
2019,01,19,15,31,167.20
2019,01,19,15,32,139.60
2019,01,19,15,33,120.40
2019,01,19,15,34,160.70
2019,01,19,15,35,183.90
2019,01,19,15,36,176.50
2019,01,19,15,37,175.70
2019,01,19,15,38,172.40
2019,01,19,15,39,175.60
2019,01,19,15,40,165.70
2019,01,19,15,41,154.40
2019,01,19,15,42,163.00
2019,01,19,15,43,164.10
2019,01,19,15,44,166.30
2019,01,19,15,45,166.70
2019,01,19,15,46,168.00
2019,01,19,15,47,164.40
2019,01,19,15,48,155.50
2019,01,19,15,49,147.70
2019,01,19,15,50,138.00
2019,01,19,15,51,132.60
2019,01,19,15,52,130.30
2019,01,19,15,53,128.20
2019,01,19,15,54,125.20
2019,01,19,15,55,130.20
2019,01,19,15,56,132.40
2019,01,19,15,57,134.20
2019,01,19,15,58,130.70
2019,01,19,15,59,120.00
2019,01,19,16,00,116.10
2019,01,19,16,01,95.80
2019,01,19,16,02,72.70
2019,01,19,16,03,61.70
2019,01,19,16,04,55.30
2019,01,19,16,05,54.00
2019,01,19,16,06,53.20
2019,01,19,16,07,53.00
2019,01,19,16,08,53.00
2019,01,19,16,09,56.00
2019,01,19,16,10,57.00
2019,01,19,16,11,68.40
2019,01,19,16,12,76.80
2019,01,19,16,13,76.90
2019,01,19,16,14,79.70
2019,01,19,16,15,81.00
2019,01,19,16,16,79.10
2019,01,19,16,17,77.00
2019,01,19,16,18,77.00
2019,01,19,16,19,78.30
2019,01,19,16,20,79.00
2019,01,19,16,21,76.70
2019,01,19,16,22,70.90
2019,01,19,16,23,63.60
2019,01,19,16,24,58.00
2019,01,19,16,25,58.00
2019,01,19,16,26,57.70
2019,01,19,16,27,55.50
2019,01,19,16,28,53.10
2019,01,19,16,29,51.70
2019,01,19,16,30,53.40
2019,01,19,16,31,52.60
2019,01,19,16,32,48.30
2019,01,19,16,33,41.70
2019,01,19,16,34,35.00
2019,01,19,16,35,29.40
2019,01,19,16,36,25.70
2019,01,19,16,37,23.30
2019,01,19,16,38,19.40
2019,01,19,16,39,19.00
2019,01,19,16,40,18.90
2019,01,19,16,41,17.60
2019,01,19,16,42,16.00
2019,01,19,16,43,16.00
2019,01,19,16,44,15.30
2019,01,19,16,45,14.00
2019,01,19,16,46,14.00
2019,01,19,16,47,13.00
2019,01,19,16,48,12.00
2019,01,19,16,49,12.00
2019,01,19,16,50,11.30
2019,01,19,16,51,11.00
2019,01,19,16,52,11.00
2019,01,19,16,53,9.20
2019,01,19,16,54,9.00
2019,01,19,16,55,8.80
2019,01,19,16,56,7.00
2019,01,19,16,57,7.00
2019,01,19,16,58,6.40
2019,01,19,16,59,5.00
2019,01,19,17,00,5.00
2019,01,19,17,01,5.00
2019,01,19,17,02,2.30
2019,01,19,17,03,0.00
2019,01,19,17,04,0.00
2019,01,19,17,05,0.00
2019,01,19,17,06,0.00
2019,01,19,17,07,0.00
2019,01,19,17,08,0.00
2019,01,19,17,09,0.00
2019,01,19,17,10,0.00
2019,01,19,17,11,0.00
2019,01,19,17,12,0.00
2019,01,19,17,13,0.00
2019,01,19,17,14,0.00
2019,01,19,17,15,0.00
2019,01,19,17,16,0.00
2019,01,19,17,17,0.00
2019,01,19,17,18,0.00
2019,01,19,17,19,0.00
2019,01,19,17,20,0.00
2019,01,19,17,21,0.00
2019,01,19,17,22,0.00
2019,01,19,17,23,0.00
2019,01,19,17,24,0.00
2019,01,19,17,25,0.00
2019,01,19,17,26,0.00
2019,01,19,17,27,0.00
2019,01,19,17,28,0.00
2019,01,19,17,29,0.00
2019,01,19,17,30,0.00